Weather Roundup
Issued by NWS

Home | Current Version | Previous Version | Graphics & Text | Print | Product List | Glossary Off
Versions: 1 2 3 4 5 6 7 8 9 10 11 12 13 14 15 16 17 18 19 20 21 22 23 24 25 26 27 28 29 30 31 32 33 34 35 36 37 38 39 40 41 42 43 44 45 46 47 48 49 50

000
NZUS93 KARX 241659
HRRWXR

CURRENT HOURLY OBSERVATIONS ACROSS
MUCH OF THE UPPER MISSISSIPPI VALLEY
NATIONAL WEATHER SERVICE LA CROSSE WI
1200 PM CDT TUE MAY 24 2016


...SOUTHEAST MINNESOTA...


CITY           SKY/WX    TMP DP  RH WIND       PRES   REMARKS
ROCHESTER      CLOUDY    73  63  70 SW8       29.93R
ROCHESTER/MAYO FAIR      73  59  62 SW7       29.92S
WINONA         PTSUNNY   73  61  64 W6        29.92R
AUSTIN         CLOUDY    72  61  68 SW8       29.92S
ALBERT LEA     CLOUDY    73  57  56 S7        29.91S
DODGE CENTER   MOSUNNY   75  57  53 W10       29.92S
PRESTON        PTSUNNY   73  60  63 SW8       29.94S
OWATONNA       CLOUDY    79  55  44 W9        29.90S
FARIBAULT      MOSUNNY   77  61  57 SW8       29.90R
$$

...ELSEWHERE IN MINNESOTA...


CITY           SKY/WX    TMP DP  RH WIND       PRES   REMARKS
MINNEAPOLIS    PTSUNNY   76  62  62 NW8       29.88R
INTNL FALLS    CLOUDY    71  50  47 W8        29.85F
DULUTH         MOSUNNY   67  57  70 SE6       29.88R
RED WING       MOSUNNY   79  61  53 SW5       29.87S
REDWOOD FALLS  SUNNY     75  64  68 SW7       29.87R
MANKATO        MOSUNNY   75  59  57 SW6       29.89S
WORTHINGTON    MOSUNNY   69  64  84 SW8       29.90S
FAIRMONT       CLOUDY    73  63  68 SW8       29.90R
$$

...SOUTHWEST WISCONSIN...


CITY           SKY/WX    TMP DP  RH WIND       PRES   REMARKS
LA CROSSE      CLOUDY    76  60  57 S6        29.92R
PRAIRIE DU CHI CLOUDY    76  59  55 S5        29.93R
BOSCOBEL       PTSUNNY   78  59  51 SW8       29.94R
LONE ROCK      NOT AVBL
PLATTEVILLE    MOSUNNY   74  61  62 S7        29.95S
FORT MC COY    CLOUDY    73  60  64 SW5       29.93R
MAUSTON-NEW LI CLOUDY    74  60  62 SW8       29.92S
VIROQUA        FAIR      72  58  60 SW9       29.95R
WIS DELLS      CLOUDY    74  56  52 SW7       29.94R
$$

...ELSEWHERE IN WISCONSIN...


CITY           SKY/WX    TMP DP  RH WIND       PRES   REMARKS
MILWAUKEE      MOSUNNY   81  56  42 S12       29.95F
MADISON        CLOUDY    74  58  57 SW6       29.95R
GREEN BAY      MOSUNNY   82  55  39 S12       29.90F
EAU CLAIRE     PTSUNNY   73  63  68 W8        29.89R
BLACK RVR FLS  PTSUNNY   76  58  53 SW8       29.91R
MEDFORD        CLOUDY    68  61  79 S7        29.91S
WAUSAU         LGT RAIN  72  58  61 S6        29.90R
WIS RAPIDS     PTSUNNY   75  57  53 SW8       29.93S
MARSHFIELD     CLOUDY    74  60  61 SW8       29.91R
RICE LAKE      CLOUDY    73  60  63 W5        29.90S
$$

...NORTHEAST IOWA...


CITY           SKY/WX    TMP DP  RH WIND       PRES   REMARKS
WATERLOO       CLOUDY    77  61  57 S6        29.92S
DUBUQUE        CLOUDY    75  62  64 S10       29.96R
DECORAH        PTSUNNY   73  61  64 CALM      29.93S
MASON CITY     MOSUNNY   71  64  78 SW6       29.93S
CHARLES CITY   CLOUDY    73  63  68 SW8       29.94S
OELWEIN        PTSUNNY   75  61  60 SW9       29.94R
$$

...ELSEWHERE IN IOWA...


CITY           SKY/WX    TMP DP  RH WIND       PRES   REMARKS
DES MOINES     CLOUDY    73  63  70 W3        29.92F
IOWA CITY      CLOUDY    78  61  55 S10       29.95F
FORT DODGE     CLOUDY    72  63  73 W7        29.92S
MARSHALLTOWN   MOSUNNY   73  64  73 SW10      29.93S
CEDAR RAPIDS   CLOUDY    77  65  66 S12G17    29.94R
$$

...NORTHERN ILLINOIS...


CITY           SKY/WX    TMP DP  RH WIND       PRES   REMARKS
CHICAGO-OHARE  MOSUNNY   80  54  40 SW15      29.99S
CHICAGO-MIDWAY PTSUNNY   83  52  34 S16G23    29.99F
MOLINE         PTSUNNY   82  59  45 S10       29.94S
ROCKFORD       PTSUNNY   81  58  45 S15G21    29.97F
PEORIA         SUNNY     81  58  45 S15       29.99F
$$

NOTE: "FAIR" INDICATES FEW OR NO CLOUDS BELOW 12,000 FEET WITH NO
SIGNIFICANT WEATHER AND/OR OBSTRUCTIONS TO VISIBILITY. WIND
SPEEDS ARE IN MILES-PER-HOUR.




USA.gov is the U.S. government's official web portal to all federal, state and local government web resources and services.